Time,TemperatureF,DewpointF,PressureIn,WindDirection,WindDirectionDegrees,WindSpeedMPH,WindSpeedGustMPH,Humidity,HourlyPrecipIn,Conditions,Clouds,dailyrainin,SoftwareType,DateUTC
2013-05-31 07:02:00,74.0,68.0,30.01,ENE,72,1.0,4.0,82,0.00,,,0.00,,2013-05-31 17:02:00,
2013-05-31 07:12:00,74.0,68.0,30.01,ENE,72,1.0,4.0,82,0.00,,,0.00,,2013-05-31 17:12:00,
2013-05-31 07:22:00,75.0,68.0,30.01,ENE,61,1.0,5.0,79,0.00,,,0.00,,2013-05-31 17:22:00,
2013-05-31 07:31:00,75.0,68.0,30.02,NE,54,6.0,12.0,80,0.00,,,0.00,,2013-05-31 17:31:00,
2013-05-31 07:42:00,75.0,68.0,30.02,NE,54,6.0,12.0,80,0.00,,,0.00,,2013-05-31 17:42:00,
2013-05-31 07:52:00,75.0,69.0,30.02,ENE,77,7.0,13.0,81,0.00,,,0.00,,2013-05-31 17:52:00,
2013-05-31 08:01:00,76.0,69.0,30.02,East,86,6.0,13.0,80,0.00,,,0.00,,2013-05-31 18:01:00,
2013-05-31 08:11:00,76.0,69.0,30.02,East,86,6.0,13.0,80,0.00,,,0.00,,2013-05-31 18:11:00,
2013-05-31 08:21:00,76.0,69.0,30.03,ENE,75,6.0,10.0,79,0.00,,,0.00,,2013-05-31 18:21:00,
2013-05-31 08:31:00,77.0,70.0,30.03,East,90,5.0,10.0,79,0.00,,,0.00,,2013-05-31 18:31:00,
2013-05-31 08:41:00,77.0,70.0,30.03,East,90,5.0,10.0,79,0.00,,,0.00,,2013-05-31 18:41:00,
2013-05-31 08:52:00,78.0,70.0,30.03,East,93,6.0,10.0,77,0.00,,,0.00,,2013-05-31 18:52:00,
2013-05-31 09:01:00,78.0,69.0,30.03,East,87,5.0,10.0,75,0.00,,,0.00,,2013-05-31 19:01:00,
2013-05-31 09:11:00,78.0,69.0,30.03,East,87,5.0,10.0,75,0.00,,,0.00,,2013-05-31 19:11:00,
2013-05-31 09:22:00,78.0,69.0,30.03,East,94,7.0,13.0,74,0.00,,,0.00,,2013-05-31 19:22:00,
2013-05-31 09:31:00,78.0,69.0,30.03,East,82,8.0,16.0,74,0.00,,,0.00,,2013-05-31 19:31:00,
2013-05-31 09:41:00,77.0,70.0,30.03,East,84,6.0,12.0,78,0.00,,,0.00,,2013-05-31 19:41:00,
2013-05-31 09:52:00,77.0,70.0,30.03,East,84,6.0,12.0,78,0.00,,,0.00,,2013-05-31 19:52:00,
2013-05-31 10:01:00,78.0,71.0,30.03,NNE,18,6.0,10.0,78,0.00,,,0.00,,2013-05-31 20:01:00,
2013-05-31 10:11:00,78.0,71.0,30.03,NNE,18,6.0,10.0,78,0.00,,,0.00,,2013-05-31 20:11:00,
2013-05-31 10:22:00,76.0,69.0,30.03,ENE,67,8.0,21.0,79,0.00,,,0.00,,2013-05-31 20:22:00,
2013-05-31 10:31:00,77.0,71.0,30.03,East,88,5.0,13.0,81,0.00,,,0.00,,2013-05-31 20:31:00,
2013-05-31 10:41:00,77.0,71.0,30.03,East,88,5.0,13.0,81,0.00,,,0.00,,2013-05-31 20:41:00,
2013-05-31 10:52:00,77.0,71.0,30.02,ESE,105,8.0,13.0,81,0.00,,,0.00,,2013-05-31 20:52:00,
2013-05-31 11:01:00,76.0,70.0,30.03,ENE,78,8.0,17.0,83,0.00,,,0.00,,2013-05-31 21:01:00,
2013-05-31 11:11:00,76.0,70.0,30.03,ENE,78,8.0,17.0,83,0.00,,,0.00,,2013-05-31 21:11:00,
2013-05-31 11:22:00,77.0,72.0,30.03,ESE,105,6.0,13.0,85,0.00,,,0.00,,2013-05-31 21:22:00,
2013-05-31 11:32:00,76.0,71.0,30.03,East,94,4.0,16.0,85,0.00,,,0.00,,2013-05-31 21:32:00,
2013-05-31 11:42:00,76.0,71.0,30.03,East,86,4.0,9.0,84,0.00,,,0.00,,2013-05-31 21:42:00,
2013-05-31 11:54:00,76.0,71.0,30.03,East,86,4.0,9.0,84,0.00,,,0.00,,2013-05-31 21:54:00,
2013-05-31 12:02:00,76.0,72.0,30.02,East,81,6.0,17.0,87,0.01,,,0.01,,2013-05-31 22:02:00,
2013-05-31 12:12:00,76.0,72.0,30.02,East,81,6.0,17.0,87,0.01,,,0.01,,2013-05-31 22:12:00,
2013-05-31 12:22:00,75.0,71.0,30.02,East,90,9.0,21.0,87,0.01,,,0.01,,2013-05-31 22:22:00,
2013-05-31 12:33:00,75.0,70.0,30.02,ENE,70,6.0,14.0,85,0.01,,,0.01,,2013-05-31 22:33:00,
2013-05-31 12:41:00,75.0,71.0,30.02,ENE,75,8.0,15.0,87,0.02,,,0.02,,2013-05-31 22:41:00,
2013-05-31 12:52:00,75.0,71.0,30.02,ENE,75,8.0,15.0,87,0.02,,,0.02,,2013-05-31 22:52:00,
2013-05-31 13:01:00,75.0,71.0,30.01,NE,38,7.0,17.0,88,0.01,,,0.02,,2013-05-31 23:01:00,
2013-05-31 13:12:00,75.0,71.0,30.01,NE,38,7.0,17.0,88,0.01,,,0.02,,2013-05-31 23:12:00,
2013-05-31 13:21:00,75.0,71.0,30.01,ENE,76,6.0,13.0,87,0.02,,,0.03,,2013-05-31 23:21:00,
2013-05-31 13:32:00,76.0,72.0,30.01,NE,38,4.0,12.0,87,0.02,,,0.03,,2013-05-31 23:32:00,
2013-05-31 13:42:00,75.0,70.0,30.01,ENE,71,8.0,16.0,85,0.01,,,0.03,,2013-05-31 23:42:00,
2013-05-31 13:52:00,75.0,70.0,30.01,ENE,71,8.0,16.0,85,0.01,,,0.03,,2013-05-31 23:52:00,
2013-05-31 14:01:00,75.0,71.0,30.01,NE,39,7.0,14.0,86,0.01,,,0.03,,2013-06-01 00:01:00,
2013-05-31 14:11:00,76.0,70.0,30.01,ENE,61,8.0,17.0,83,0.00,,,0.03,,2013-06-01 00:11:00,
2013-05-31 14:21:00,76.0,70.0,30.01,ENE,61,8.0,17.0,83,0.00,,,0.03,,2013-06-01 00:21:00,
2013-05-31 14:31:00,76.0,70.0,30.01,ENE,69,9.0,16.0,83,0.00,,,0.03,,2013-06-01 00:31:00,
2013-05-31 14:42:00,76.0,71.0,30.01,East,86,10.0,18.0,84,0.00,,,0.03,,2013-06-01 00:42:00,
2013-05-31 14:52:00,76.0,71.0,30.01,East,86,10.0,18.0,84,0.00,,,0.03,,2013-06-01 00:52:00,
2013-05-31 15:01:00,75.0,70.0,30.00,ENE,78,12.0,21.0,84,0.01,,,0.04,,2013-06-01 01:01:00,
2013-05-31 15:11:00,75.0,70.0,30.00,North,11,7.0,21.0,84,0.01,,,0.04,,2013-06-01 01:11:00,
2013-05-31 15:21:00,75.0,70.0,30.00,North,11,7.0,21.0,84,0.01,,,0.04,,2013-06-01 01:21:00,
2013-05-31 15:31:00,77.0,70.0,30.00,East,94,7.0,16.0,80,0.01,,,0.04,,2013-06-01 01:31:00,
2013-05-31 15:42:00,77.0,70.0,30.00,ENE,63,12.0,19.0,79,0.00,,,0.04,,2013-06-01 01:42:00,
2013-05-31 15:52:00,77.0,70.0,30.00,ENE,63,12.0,19.0,79,0.00,,,0.04,,2013-06-01 01:52:00,
2013-05-31 16:01:00,75.0,69.0,30.00,ENE,67,9.0,15.0,83,0.00,,,0.04,,2013-06-01 02:01:00,
2013-05-31 16:11:00,75.0,71.0,30.00,ENE,74,6.0,11.0,86,0.00,,,0.04,,2013-06-01 02:11:00,
2013-05-31 16:21:00,75.0,71.0,30.00,ENE,74,6.0,11.0,86,0.00,,,0.04,,2013-06-01 02:21:00,
2013-05-31 16:31:00,75.0,71.0,30.00,ENE,60,13.0,21.0,86,0.00,,,0.04,,2013-06-01 02:31:00,
2013-05-31 16:41:00,74.0,70.0,29.99,East,82,8.0,21.0,86,0.00,,,0.04,,2013-06-01 02:41:00,
2013-05-31 16:52:00,74.0,70.0,29.99,East,82,8.0,21.0,86,0.00,,,0.04,,2013-06-01 02:52:00,
2013-05-31 17:01:00,75.0,70.0,29.99,East,92,10.0,21.0,84,0.00,,,0.04,,2013-06-01 03:01:00,
2013-05-31 17:11:00,76.0,70.0,29.99,East,82,11.0,21.0,82,0.01,,,0.05,,2013-06-01 03:11:00,
2013-05-31 17:21:00,76.0,70.0,29.99,East,82,11.0,21.0,82,0.01,,,0.05,,2013-06-01 03:21:00,
2013-05-31 17:33:00,76.0,70.0,30.00,NE,42,9.0,16.0,83,0.01,,,0.05,,2013-06-01 03:33:00,
2013-05-31 17:43:00,75.0,69.0,30.00,ENE,76,12.0,18.0,82,0.01,,,0.05,,2013-06-01 03:43:00,
2013-05-31 17:53:00,75.0,69.0,30.00,ENE,76,12.0,18.0,82,0.01,,,0.05,,2013-06-01 03:53:00,
2013-05-31 18:02:00,75.0,69.0,30.01,ENE,64,10.0,22.0,82,0.01,,,0.05,,2013-06-01 04:02:00,
2013-05-31 18:12:00,75.0,69.0,30.01,East,87,8.0,18.0,82,0.00,,,0.05,,2013-06-01 04:12:00,
2013-05-31 18:22:00,75.0,69.0,30.01,East,87,8.0,18.0,82,0.00,,,0.05,,2013-06-01 04:22:00,
2013-05-31 18:33:00,75.0,69.0,30.02,East,88,8.0,16.0,82,0.00,,,0.05,,2013-06-01 04:33:00,
2013-05-31 18:42:00,75.0,69.0,30.02,East,84,7.0,13.0,81,0.00,,,0.05,,2013-06-01 04:42:00,
2013-05-31 18:53:00,75.0,69.0,30.02,East,84,7.0,13.0,81,0.00,,,0.05,,2013-06-01 04:53:00,
2013-05-31 19:02:00,75.0,69.0,30.02,NE,52,9.0,15.0,81,0.00,,,0.05,,2013-06-01 05:02:00,
2013-05-31 19:12:00,75.0,69.0,30.02,NE,52,9.0,15.0,81,0.00,,,0.05,,2013-06-01 05:12:00,
2013-05-31 19:22:00,75.0,69.0,30.02,East,79,8.0,17.0,81,0.00,,,0.05,,2013-06-01 05:22:00,
2013-05-31 19:32:00,75.0,69.0,30.03,East,88,9.0,16.0,82,0.00,,,0.05,,2013-06-01 05:32:00,
2013-05-31 19:42:00,74.0,68.0,30.03,ENE,77,6.0,15.0,82,0.00,,,0.05,,2013-06-01 05:42:00,
2013-05-31 19:52:00,74.0,68.0,30.03,ENE,77,6.0,15.0,82,0.00,,,0.05,,2013-06-01 05:52:00,
2013-05-31 20:01:00,74.0,68.0,30.04,NE,38,10.0,16.0,82,0.00,,,0.05,,2013-06-01 06:01:00,
2013-05-31 20:12:00,74.0,68.0,30.04,NE,56,10.0,19.0,82,0.00,,,0.05,,2013-06-01 06:12:00,
2013-05-31 20:22:00,74.0,68.0,30.04,NE,56,10.0,19.0,82,0.00,,,0.05,,2013-06-01 06:22:00,
2013-05-31 20:32:00,74.0,68.0,30.04,ENE,58,7.0,13.0,82,0.00,,,0.05,,2013-06-01 06:32:00,
2013-05-31 20:41:00,75.0,69.0,30.05,NE,44,10.0,18.0,81,0.00,,,0.05,,2013-06-01 06:41:00,
2013-05-31 20:52:00,75.0,69.0,30.05,NE,44,10.0,18.0,81,0.00,,,0.05,,2013-06-01 06:52:00,
2013-05-31 21:01:00,74.0,68.0,30.06,East,86,5.0,11.0,82,0.00,,,0.05,,2013-06-01 07:01:00,
2013-05-31 21:11:00,74.0,68.0,30.06,East,86,5.0,11.0,82,0.00,,,0.05,,2013-06-01 07:11:00,
2013-05-31 21:21:00,74.0,68.0,30.06,ENE,78,7.0,14.0,81,0.00,,,0.05,,2013-06-01 07:21:00,
2013-05-31 21:31:00,74.0,68.0,30.06,ENE,64,10.0,17.0,81,0.00,,,0.05,,2013-06-01 07:31:00,
2013-05-31 21:41:00,74.0,68.0,30.06,ENE,74,10.0,22.0,81,0.00,,,0.05,,2013-06-01 07:41:00,
2013-05-31 21:52:00,74.0,68.0,30.06,ENE,74,10.0,22.0,81,0.00,,,0.05,,2013-06-01 07:52:00,
2013-05-31 22:01:00,74.0,67.0,30.07,ENE,75,7.0,13.0,80,0.00,,,0.05,,2013-06-01 08:01:00,
2013-05-31 22:11:00,74.0,68.0,30.07,East,82,9.0,15.0,81,0.00,,,0.05,,2013-06-01 08:11:00,
2013-05-31 22:21:00,74.0,68.0,30.07,East,82,9.0,15.0,81,0.00,,,0.05,,2013-06-01 08:21:00,
2013-05-31 22:32:00,74.0,68.0,30.07,East,83,7.0,15.0,82,0.00,,,0.05,,2013-06-01 08:32:00,
2013-05-31 22:42:00,74.0,68.0,30.07,East,83,7.0,15.0,82,0.00,,,0.05,,2013-06-01 08:42:00,
2013-05-31 22:52:00,74.0,68.0,30.07,East,83,7.0,15.0,82,0.00,,,0.05,,2013-06-01 08:52:00,
2013-05-31 23:01:00,74.0,68.0,30.07,East,83,7.0,15.0,82,0.00,,,0.05,,2013-06-01 09:01:00,
2013-05-31 23:12:00,74.0,68.0,30.07,East,83,7.0,15.0,82,0.00,,,0.05,,2013-06-01 09:12:00,